This is the latest recevied weather packets stored in our database for station/object SV1TGC. If no packets are shown the sender has not sent any weather packets the latest 10 day(s).
| Time | Temp. | Humidity | Pressure | Rain* | Wind** | Luminosity | Snow |
|---|---|---|---|---|---|---|---|
| 1777576551 | 17.78° C | 66% | 1013.9 hPa | 0 mm | - | - | - |
| 1777573533 | 18.33° C | 65% | 1013.5 hPa | 0 mm | - | - | - |
| 1777572948 | 18.33° C | 66% | 1013.4 hPa | 0 mm | - | - | - |
| 1777572332 | 18.89° C | 65% | 1013.2 hPa | 0 mm | - | - | - |
| 1777572053 | 18.89° C | 65% | 1013.2 hPa | 0 mm | - | - | - |
| 1777569933 | 19.44° C | 63% | 1013 hPa | 0 mm | - | - | - |
| 1777569032 | 19.44° C | 62% | 1012.8 hPa | 0 mm | - | - | - |
| 1777566332 | 20° C | 59% | 1012.7 hPa | 0 mm | - | - | - |
| 1777565433 | 20.56° C | 52% | 1012.7 hPa | 0 mm | - | - | - |
| 1777564849 | 21.11° C | 50% | 1012.7 hPa | 0 mm | - | - | - |
| 1777564232 | 21.11° C | 50% | 1012.8 hPa | 0 mm | - | - | - |
| 1777563634 | 21.11° C | 51% | 1012.8 hPa | 0 mm | - | - | - |
| 1777562733 | 21.11° C | 53% | 1012.9 hPa | 0 mm | - | - | - |
| 1777561537 | 21.67° C | 50% | 1012.9 hPa | 0 mm | - | - | - |
| 1777561248 | 21.67° C | 49% | 1012.9 hPa | 0 mm | - | - | - |
| 1777559486 | 21.67° C | 49% | 1013.2 hPa | 0 mm | - | - | - |
| 1777553155 | 22.22° C | 51% | 1013.5 hPa | 0 mm | - | - | - |
| 1777552247 | 22.22° C | 52% | 1013.6 hPa | 0 mm | - | - | - |
| 1777550135 | 21.67° C | 52% | 1014 hPa | 0 mm | - | - | - |
| 1777548336 | 22.78° C | 51% | 1014.2 hPa | 0 mm | - | - | - |
| 1777546534 | 23.33° C | 50% | 1014.4 hPa | 0 mm | - | - | - |
| 1777543834 | 23.33° C | 48% | 1014.6 hPa | 0 mm | - | - | - |
| 1777542635 | 23.89° C | 44% | 1014.7 hPa | 0 mm | - | - | - |
| 1777541477 | 23.89° C | 44% | 1014.9 hPa | 0 mm | - | - | - |
| 1777540236 | 23.33° C | 44% | 1015 hPa | 0 mm | - | - | - |
* Rain latest hour (hover to see other rain measurements)
** Current wind speed in m/s (hover to see current wind gust speed)